Location: Bothwell
(42.3833°S, 147.0000°E)
Time: 10:27:42
(UTC+11:00)

Envisat - Pass Details

Date: 01 December 2022
Orbit: 763 x 765 km, 98.2° (Epoch: 28 January)

Event Time Altitude Azimuth Distance (km) Brightness Sun altitude
Rises 03:39:10 0° 42° (NE) 3,229 6.1 -16.2°
Reaches altitude 10° 03:41:39 10° 51° (NE) 2,311 5.5 -15.9°
Maximum altitude 03:46:07 32° 113° (ESE) 1,313 4.8 -15.4°
Drops below altitude 10° 03:50:38 10° 174° (S) 2,335 6.4 -14.9°
Sets 03:53:10 0° 183° (S) 3,269 7.0 -14.6°
